RH
24 28 29 30 31 26 29 31 31 32 32 27 28 38 40 36 30 13 10 31 25 21 19 18 13 9 10 11 11 10 10 11 12 13 16 18 18 17 18 18 19 19 19 18 18 18 19 18 17
32 33 32 32 30 31 33 35 34 36 38 34 33 32 36 39 33 8 7 32 30 22 20 19 17 13 11 12 13 14 15 15 15 16 17 18 18 18 18 18 18 18 19 18 17 17 17 18 19
26 33 32 32 34 34 35 37 37 33 37 35 34 37 36 37 30 8 5 30 31 25 21 20 19 18 14 14 16 16 17 17 19 20 21 21 20 20 21 21 21 20 19 20 20 18 17 17 16
22 29 30 29 30 29 31 36 35 36 36 35 35 37 36 31 22 21 8 12 33 27 22 21 20 20 19 17 14 16 18 19 19 20 19 18 18 18 19 19 20 20 20 20 19 19 20 21 21
18 27 28 27 28 26 28 32 35 36 37 37 35 33 34 34 22 28 15 6 25 34 22 23 22 21 21 19 19 17 18 17 18 19 19 18 18 18 18 17 17 18 19 20 21 21 21 21 22
14 28 26 27 26 26 26 27 26 30 32 35 33 33 34 34 29 25 26 7 9 27 34 23 23 23 22 21 20 19 19 18 18 17 18 18 19 20 20 20 20 19 19 18 19 19 20 21 22
11 28 26 26 26 25 25 25 25 26 29 32 34 33 35 36 33 23 28 16 18 9 20 33 23 23 24 23 21 20 20 20 20 20 19 18 18 19 21 21 20 20 20 20 20 20 20 20 20
6 26 27 26 24 24 25 26 25 26 26 27 34 34 38 36 34 34 28 25 23 14 7 13 30 24 22 22 22 21 19 20 21 21 21 21 21 20 20 20 19 18 18 18 19 20 20 20 20
10 13 25 28 26 25 25 25 26 26 26 26 27 35 37 36 34 36 27 31 27 24 16 7 11 25 25 20 20 20 20 19 20 20 20 20 21 22 22 21 20 18 18 18 17 19 20 21 21
14 14 16 22 26 26 24 23 24 26 25 25 25 30 26 25 28 32 34 30 28 26 25 18 9 17 24 28 24 20 19 19 18 20 21 21 21 22 22 21 19 18 16 16 18 20 20 21 23
15 15 16 16 17 21 23 23 23 24 25 26 25 23 24 25 24 23 28 34 33 27 26 22 21 10 16 22 28 28 23 19 18 18 19 19 20 20 19 18 16 15 15 14 15 17 18 19 20
18 19 18 18 19 18 17 16 17 20 21 23 23 24 23 23 24 20 23 37 41 35 28 25 25 24 11 10 20 21 21 20 19 18 18 18 19 19 16 14 15 13 13 14 15 16 18 19 20
19 18 18 18 18 21 22 18 21 17 22 24 24 19 16 18 21 21 22 33 42 37 36 28 26 25 16 10 9 11 13 15 18 18 18 17 17 17 15 13 12 12 13 15 18 20 22 22 22
15 14 14 14 15 16 16 18 19 19 21 23 25 22 21 19 25 27 23 21 33 37 39 40 32 28 19 17 14 12 14 14 12 11 11 12 12 10 10 11 12 13 16 18 22 25 29 31 30
12 12 10 10 10 13 13 12 13 15 21 23 26 26 22 26 28 28 27 25 24 26 40 44 45 39 31 23 18 16 17 18 18 17 15 14 14 13 12 13 14 16 19 23 30 34 35 35 35
17 17 16 14 15 14 16 22 11 14 14 16 24 26 26 26 27 27 27 25 25 27 26 24 26 39 46 35 25 23 24 22 22 22 20 18 17 18 17 18 20 20 25 30 35 38 41 43 43
13 17 18 18 16 16 18 21 16 12 12 10 14 24 26 26 27 25 25 22 21 20 20 23 26 25 26 46 42 29 31 36 39 42 33 23 22 22 23 24 23 22 26 30 32 33 35 38 47
23 25 29 29 20 16 14 12 20 13 11 13 10 10 21 25 25 25 24 23 21 20 19 20 19 21 25 26 34 46 40 38 42 46 46 45 33 24 24 24 24 25 27 28 30 32 34 35 38
33 36 37 34 31 32 27 21 27 24 20 11 11 13 12 13 17 21 23 23 22 21 20 19 18 18 19 18 25 26 26 35 40 42 46 50 49 43 28 47 56 29 29 31 34 34 35 36 38
36 39 41 39 41 39 39 30 27 30 27 22 21 21 26 21 17 13 17 22 23 20 20 18 17 16 16 20 18 26 28 26 28 33 40 50 58 59 67 63 67 59 57 62 68 68 60 57 53
39 41 43 49 53 47 41 37 39 23 24 26 29 32 30 29 26 23 22 23 24 22 20 17 16 15 14 14 19 22 29 30 28 27 26 31 42 60 63 68 72 57 60 58 74 74 63 44 43
47 39 45 51 55 49 54 48 38 23 33 35 37 35 33 32 31 31 26 20 24 25 22 18 15 17 16 18 19 20 25 29 30 30 30 29 32 54 65 81 73 59 71 72 79 74 60 50 48
56 55 52 48 48 50 43 50 32 40 43 41 40 42 42 40 36 35 34 32 29 29 24 20 16 14 20 18 20 22 24 27 31 31 30 32 34 42 57 69 66 74 68 68 66 60 50 39 21
50 51 49 46 45 54 50 51 40 49 57 55 55 54 50 47 39 33 32 33 32 31 29 25 18 16 16 23 24 24 25 28 30 31 31 35 39 41 54 66 68 71 59 52 57 41 29 18 20
53 42 38 35 40 40 46 52 38 50 58 62 57 55 55 55 47 40 39 38 35 31 27 30 24 23 23 19 26 29 29 31 32 36 36 39 41 51 64 79 75 61 51 42 40 17 20 20 26
36 41 35 33 31 33 48 49 55 55 66 63 56 51 60 56 51 46 43 43 40 35 41 32 28 27 29 23 25 34 35 35 37 42 40 43 55 72 79 87 85 52 43 39 16 20 21 25 26
35 47 53 63 58 73 48 58 65 65 70 65 62 57 53 51 51 49 45 40 43 45 46 43 35 42 57 50 43 43 41 42 46 52 59 68 74 77 81 97 80 67 59 29 17 20 25 26 30
21 32 47 65 65 49 36 58 49 55 53 63 62 55 52 48 44 37 52 53 47 44 43 51 55 64 68 64 50 44 48 51 57 64 66 70 73 89 91 86 99 73 42 22 26 28 28 30 34
21 21 45 62 68 51 41 23 50 66 70 68 64 62 56 51 41 32 19 37 72 68 62 56 52 76 76 75 75 65 60 64 68 67 66 75 82 90 79 72 82 48 30 30 33 31 31 35 35
44 48 52 52 46 86 96 62 54 63 74 66 64 44 33 23 17 14 12 16 43 63 67 76 97 98 84 86 72 63 80 80 70 77 81 82 93 78 84 80 68 46 42 37 33 33 36 37 37
Wind_Speed
10 10 10 8 4 6 10 5 3 2 4 7 9 3 5 8 9 8 8 6 8 7 5 3 6 7 10 11 11 10 10 11 10 11 11 10 9 8 7 7 6 6 6 6 6 6 6 7 7
10 9 10 8 9 11 6 4 1 4 3 1 6 7 8 9 10 13 5 5 7 10 8 5 4 4 7 10 11 10 10 10 10 9 9 8 8 6 6 5 4 3 3 4 4 4 4 4 3
8 12 11 7 7 5 3 1 3 5 5 2 6 9 10 12 11 15 11 5 10 11 12 9 5 3 4 7 9 10 9 8 7 7 6 6 5 4 4 3 3 1 0 0 0 1 2 2 2
6 8 7 6 8 7 3 5 6 7 4 4 7 9 10 12 12 18 17 1 10 14 16 14 11 7 4 2 3 5 7 7 7 5 4 4 4 4 3 3 3 4 4 4 3 3 2 2 1
3 6 4 5 10 10 5 4 7 8 9 9 11 10 11 12 10 18 18 6 9 12 19 18 15 12 9 6 4 4 4 4 5 6 5 5 5 5 5 5 6 6 7 8 8 7 6 5 5
5 5 5 8 10 9 8 7 4 6 11 15 14 13 12 13 12 13 18 13 1 12 14 21 20 17 15 12 10 8 6 6 5 5 5 6 6 7 7 8 8 9 9 10 10 10 10 9 8
6 5 4 5 7 6 5 4 4 5 7 11 18 15 12 10 13 12 13 12 15 5 16 19 23 23 20 18 15 13 12 11 9 8 7 7 8 8 9 10 10 11 12 12 13 13 13 12 12
8 7 5 5 3 3 3 2 6 6 5 8 11 12 12 12 13 13 12 9 11 11 6 16 21 23 24 23 20 19 17 15 14 13 12 11 11 10 11 12 12 13 13 14 14 14 14 15 14
9 9 7 6 7 8 7 6 6 8 5 5 7 9 9 14 15 13 12 9 8 8 8 4 14 20 22 24 24 23 22 20 19 18 16 15 14 14 14 14 15 15 15 15 15 15 15 15 15
10 10 8 11 12 13 13 13 13 12 11 8 8 10 10 10 13 14 12 10 6 5 7 6 5 11 18 22 24 25 25 24 23 22 20 18 17 17 18 18 18 17 16 16 15 16 16 16 16
14 14 16 15 17 20 18 18 18 19 15 17 21 22 20 20 20 17 15 15 11 7 5 5 6 8 15 18 21 24 25 25 25 24 23 21 20 20 20 19 19 18 17 16 16 16 16 17 17
17 17 19 21 21 22 23 24 24 24 21 26 28 27 28 26 26 23 19 19 18 13 10 7 5 7 11 16 20 20 22 23 23 22 23 23 23 22 21 20 19 18 17 17 16 16 17 17 18
16 18 19 22 24 25 26 25 26 24 25 26 29 29 28 21 16 19 21 22 22 22 18 14 14 11 13 14 15 17 18 20 20 22 22 22 23 22 21 20 19 18 18 16 16 17 17 18 18
21 21 21 21 21 25 23 18 20 20 20 18 21 19 15 19 14 14 17 22 25 24 25 22 18 17 18 16 15 14 15 15 16 17 19 20 20 20 20 19 19 18 17 17 17 17 18 18 19
20 26 26 25 24 21 27 27 17 18 17 18 16 11 16 17 16 13 10 13 17 25 27 27 27 24 24 22 20 18 16 16 16 17 18 18 19 18 19 19 19 18 18 18 18 17 17 17 18
27 30 23 20 25 25 26 24 21 22 22 21 20 15 12 17 18 18 18 17 18 19 20 28 30 30 30 27 27 25 23 22 21 20 21 22 23 22 22 22 21 20 21 21 21 20 19 19 19
25 24 24 24 22 30 32 38 33 28 33 29 26 23 20 19 19 18 22 23 23 21 22 24 27 31 33 33 34 33 30 27 26 25 25 26 26 26 25 25 25 25 25 25 24 24 23 24 24
22 24 24 28 30 30 37 40 38 31 31 35 30 27 29 27 24 24 25 23 23 25 25 27 27 28 29 35 38 40 40 37 34 32 30 30 30 31 30 28 29 28 29 29 28 27 28 29 28
24 25 28 28 28 32 36 45 41 41 35 33 34 32 30 32 33 31 31 30 28 26 30 32 34 31 34 33 37 40 42 40 41 39 40 38 35 31 28 22 31 33 34 31 32 33 33 33 32
23 25 25 26 21 30 33 46 43 39 39 38 37 35 31 30 29 31 32 31 30 31 29 30 36 40 43 41 35 39 36 40 42 43 43 44 44 39 40 40 35 35 32 33 35 33 34 33 30
26 26 28 25 27 33 33 41 34 41 41 39 37 34 32 29 31 28 31 32 34 33 32 31 33 38 34 33 37 37 39 38 39 41 40 37 45 49 40 45 26 30 29 33 29 33 30 29 30
23 26 29 31 26 23 19 28 37 35 35 35 31 28 25 25 26 29 31 35 33 34 35 32 34 33 32 31 34 33 36 39 35 38 36 40 41 48 45 46 35 29 25 25 30 27 26 24 22
20 18 23 29 29 27 19 14 32 30 22 20 21 20 18 20 25 26 28 31 35 39 41 34 34 34 34 34 32 30 32 32 34 36 40 42 43 43 34 35 28 25 27 27 24 20 21 19 16
20 18 20 15 15 8 6 6 12 17 19 20 20 21 24 24 28 35 35 36 39 42 42 40 38 33 33 35 31 29 31 34 35 37 39 41 41 41 38 33 29 28 26 21 20 22 19 16 15
7 18 11 5 4 9 14 14 20 24 19 17 18 20 20 19 21 26 32 31 30 36 41 31 31 33 29 31 31 27 28 32 34 35 37 37 39 42 36 33 28 26 23 21 21 22 17 16 16
11 7 5 7 8 17 23 10 8 18 13 8 7 14 13 13 15 18 24 29 33 37 37 28 24 29 22 28 30 29 30 32 35 35 36 39 39 35 34 34 30 26 19 24 24 20 16 19 19
9 5 8 14 20 11 12 14 17 23 21 23 21 20 19 19 23 27 28 28 27 30 30 21 19 19 16 21 29 31 32 34 35 34 31 33 35 33 37 36 20 21 25 22 25 19 21 21 21
18 14 8 9 5 8 13 17 21 24 25 24 24 25 29 29 21 25 26 29 29 26 27 25 21 16 11 12 16 21 24 24 26 25 27 32 34 34 36 28 18 25 25 27 23 19 22 23 24
16 20 12 10 12 6 8 14 18 9 16 20 25 31 33 35 35 34 33 27 25 26 23 22 23 16 15 15 14 14 14 13 14 19 24 27 28 26 24 25 23 31 25 24 22 21 21 23 26
14 15 9 8 7 8 9 30 22 17 20 32 37 44 48 48 46 39 34 28 24 23 22 20 16 20 23 25 24 32 30 23 24 19 19 21 20 19 18 19 28 26 23 23 23 23 23 26 29
Wind_Direction
109 116 125 126 117 132 127 122 79 132 96 52 44 19 2 4 2 339 310 202 202 191 197 148 107 122 134 133 132 131 135 141 150 158 156 146 138 133 127 122 119 110 100 94 89 88 85 83 85
108 119 125 111 118 129 138 128 208 194 173 97 2 3 343 338 352 3 359 196 225 200 194 204 144 125 133 136 137 143 146 150 157 161 156 151 148 147 143 136 127 113 106 102 97 94 94 94 94
103 129 122 111 127 92 81 112 211 226 197 324 329 328 333 348 352 12 6 220 221 209 197 208 207 176 143 150 151 154 156 158 162 162 165 166 167 171 173 173 173 175 190 316 190 143 137 140 131
118 126 119 117 115 71 88 211 214 219 248 279 315 322 329 350 351 16 15 210 234 214 205 207 215 208 211 197 170 170 170 169 172 177 191 212 215 218 228 242 257 273 282 279 279 287 294 295 292
151 149 124 123 104 80 90 226 268 260 278 294 292 311 304 327 348 11 16 31 214 222 211 212 215 222 216 224 232 216 217 212 207 197 208 234 252 263 268 275 280 284 285 288 291 291 293 293 292
201 172 150 129 132 101 82 79 50 257 266 271 277 281 303 320 327 356 11 18 356 215 225 221 219 222 229 225 233 238 241 252 256 268 258 254 262 269 276 277 276 275 275 280 284 289 291 290 289
212 182 165 156 155 139 125 170 196 248 297 272 263 279 295 313 327 323 2 13 13 284 225 225 223 221 224 234 236 241 240 243 252 259 268 275 274 271 271 275 275 276 278 277 278 279 283 284 284
236 209 211 204 210 178 220 153 219 239 261 279 268 272 275 274 312 302 320 351 9 360 299 235 230 226 225 227 233 242 246 249 248 251 256 259 263 270 271 271 273 272 270 271 273 275 279 282 285
257 238 235 249 257 239 274 275 262 245 259 289 294 265 272 281 273 279 277 314 348 358 352 297 239 235 235 233 233 238 243 246 250 252 254 259 269 270 270 271 269 272 273 271 272 274 276 277 281
270 270 258 254 273 272 267 288 284 272 268 284 306 268 274 282 286 274 256 275 302 327 345 327 270 233 235 238 239 240 244 247 249 250 254 258 261 265 270 273 274 272 268 266 267 268 270 273 273
283 278 278 273 276 283 276 277 280 297 270 291 295 288 279 276 282 278 272 254 267 279 295 302 300 263 238 238 241 243 247 250 251 253 254 255 257 262 269 270 271 270 266 266 266 268 271 274 275
288 286 287 292 292 289 288 283 282 285 285 289 283 280 284 285 282 287 264 250 259 263 261 252 260 269 256 243 241 245 248 251 253 256 256 258 261 262 264 264 264 264 265 265 269 270 270 271 272
286 291 291 291 293 294 294 292 288 288 290 290 292 286 278 276 299 294 252 237 240 250 254 259 259 257 254 245 240 242 242 246 249 250 252 255 260 263 263 261 259 259 259 262 264 266 269 270 271
291 291 292 292 299 304 301 300 295 295 284 283 292 286 265 274 271 285 264 248 243 243 249 256 260 261 252 250 239 234 227 227 231 236 241 245 249 253 256 256 254 254 256 258 260 265 270 274 276
290 291 288 292 302 302 301 300 300 292 282 282 280 277 254 247 262 267 274 267 263 254 249 253 262 262 257 254 248 235 235 223 217 218 225 234 240 242 245 246 246 248 251 253 256 263 273 278 279
292 296 301 301 306 306 306 303 293 295 292 278 269 268 262 248 261 261 270 272 273 269 265 252 252 255 258 257 253 246 240 235 232 233 232 235 237 238 240 241 243 246 248 252 258 262 268 275 277
297 296 304 308 298 301 299 296 298 291 294 292 280 273 267 258 260 269 274 281 282 275 282 271 264 258 253 252 254 250 245 243 242 243 246 243 242 241 239 242 244 247 248 252 256 262 267 268 270
300 298 297 299 303 295 292 290 303 300 290 296 290 282 270 269 268 270 272 280 279 276 277 270 272 260 257 252 248 251 250 248 247 248 248 250 247 244 244 247 254 249 251 253 257 261 263 267 268
295 295 297 302 305 302 297 291 303 306 304 294 299 298 287 270 267 268 268 274 275 275 276 279 274 269 261 262 254 249 250 251 252 253 255 254 254 247 251 249 245 264 260 257 257 258 261 264 267
289 294 300 304 308 305 303 292 295 302 301 302 303 308 307 297 281 271 269 267 270 270 274 271 275 272 262 258 263 252 251 251 251 253 254 258 260 256 247 245 254 255 257 254 256 258 261 266 271
291 297 306 311 315 305 308 296 301 296 295 305 311 306 305 302 299 280 270 268 280 281 275 270 269 277 265 252 252 253 245 248 250 253 257 257 259 259 244 239 269 245 246 248 254 261 269 270 263
295 298 301 303 310 305 309 301 311 314 316 319 307 307 299 290 285 282 285 281 283 285 283 269 266 264 261 249 251 254 253 247 258 256 260 256 257 263 259 240 258 249 252 259 252 252 257 261 266
299 301 301 300 300 297 296 272 295 313 328 314 303 297 294 296 302 301 296 290 285 288 288 283 270 261 254 249 250 249 248 249 252 252 257 257 257 261 255 251 252 252 248 254 250 260 263 257 259
297 303 310 309 297 268 353 276 313 335 319 297 297 306 309 310 296 283 287 289 287 289 295 295 289 269 262 251 244 246 249 246 249 253 256 255 256 256 250 241 239 246 254 259 251 249 245 255 267
286 320 319 303 297 270 299 316 272 289 289 313 336 328 327 325 308 303 297 294 297 295 298 304 294 270 263 256 243 246 248 245 246 250 250 250 251 251 245 233 238 246 256 257 245 240 244 257 273
333 328 293 289 294 297 299 260 256 259 282 300 328 4 357 353 335 312 309 302 295 292 301 293 293 291 281 249 246 249 247 243 245 245 246 250 250 243 239 234 231 242 248 256 245 243 254 264 277
306 299 282 284 280 272 268 262 258 249 253 274 279 312 334 344 333 319 315 321 305 299 319 305 292 291 305 277 258 252 250 249 247 246 248 252 250 245 247 217 202 243 249 246 244 241 253 264 276
295 292 281 243 271 268 263 265 258 270 274 267 276 297 308 311 320 332 326 324 314 312 299 308 301 300 293 315 277 259 255 254 256 251 245 248 250 245 247 267 268 258 251 245 244 250 261 272 286
292 262 237 253 241 256 281 266 265 257 283 288 293 307 311 314 317 320 321 327 322 323 311 292 292 295 295 288 287 281 265 256 237 250 244 240 249 263 276 251 249 252 246 244 254 262 271 284 296
266 264 254 247 273 269 279 265 251 260 289 293 306 312 313 315 314 314 315 319 322 318 324 313 309 315 292 288 282 278 277 287 272 240 244 246 262 264 262 254 246 245 244 250 262 274 285 292 296